Miscellaneous Local Product
Issued by NWS Hastings, NE

Home | Current Version | Previous Version | Graphics & Text | Print | Product List | Glossary On
Versions: 1 2 3 4 5 6 7 8 9 10 11 12 13 14 15 16 17 18 19 20 21 22 23 24 25 26 27 28 29 30 31 32 33 34 35 36 37 38 39 40 41 42 43 44 45 46 47 48 49 50
000
AXUS43 KGID 040502
MISGRI

GID CWA HOURLY WEATHER ROUNDUP
NATIONAL WEATHER SERVICE HASTINGS NE
1200 AM CDT FRI SEP 04 2015

NOTE: "FAIR" INDICATES FEW OR NO CLOUDS BELOW 12,000 FEET WITH NO
SIGNIFICANT WEATHER AND/OR OBSTRUCTIONS TO VISIBILITY.

...SOUTH CENTRAL NEBRASKA...

CITY           SKY/WX    TMP DP  RH WIND       PRES   REMARKS
GRAND ISLAND   MOCLDY    77  64  64 S14       29.82R
HASTINGS       MOCLDY    80  63  55 S12       29.82S
KEARNEY        MOCLDY    77  61  57 SE14      29.80F
ORD            MOCLDY    79  63  57 SE7       29.78R
YORK           MOCLDY    77  66  69 S13       29.84R
AURORA         MOCLDY    78  65  64 S13       29.82S
LEXINGTON      CLOUDY    81  61  49 S13       29.79S
HOLDREGE       CLOUDY    79  59  50 SE12      29.80F
HEBRON         MOCLDY    78  63  58 S10       29.84S

...NEBRASKA PANHANDLE...

CITY           SKY/WX    TMP DP  RH WIND       PRES   REMARKS
CHADRON        CLOUDY    76  49  38 SW7       29.81F
ALLIANCE       CLOUDY    70  54  56 W10       29.87F
SCOTTSBLUFF    CLOUDY    68  59  73 S5        29.89F
SIDNEY         CLOUDY    68  55  63 NE8       29.92F

...WESTERN AND NORTH CENTRAL NEBRASKA...

CITY           SKY/WX    TMP DP  RH WIND       PRES   REMARKS
VALENTINE      CLOUDY    77  55  46 E7        29.76F
AINSWORTH      CLOUDY    76  64  65 S6        29.77F
ONEILL         CLOUDY    79  67  67 SE12      29.78S
BROKEN BOW     CLOUDY    80  61  52 SE8       29.80S
IMPERIAL       CLOUDY    68  62  81 N10       29.83F
NORTH PLATTE   LGT RAIN  80  61  52 S5        29.81R
MCCOOK         CLOUDY    85  58  39 S16G22    29.78R

...EASTERN NEBRASKA...

CITY           SKY/WX    TMP DP  RH WIND       PRES   REMARKS
NORFOLK        CLEAR     78  67  68 SE13      29.80S
SO SIOUX CITY  MOCLDY    77  70  79 SE9       29.81S
TEKAMAH        PTCLDY    75  71  87 SE7       29.83R
COLUMBUS       PTCLDY    79  64  61 S6        29.82S
ALBION         PTCLDY    74  65  74 SE8       29.81S
OMAHA EPPLEY   PTCLDY    80  69  69 S14       29.85R
OFFUTT AFB     PTCLDY    77  69  76 SE9       29.85S
MILLARD        PTCLDY    77  70  78 SE3       29.85S
LINCOLN        PTCLDY    79  67  66 S13       29.84S
NEBRASKA CITY  PTCLDY    74  65  73 S9        29.88R
BEATRICE       MOCLDY    77  67  70 S9        29.86S
FALLS CITY     PTCLDY    76  67  73 S9        29.88R

...NORTHERN KANSAS...

CITY           SKY/WX    TMP DP  RH WIND       PRES   REMARKS
GOODLAND       MOCLDY    74  54  49 VRB3      29.86R
HILL CITY      CLOUDY    86  59  39 S16G28    29.80S
NORTON         CLEAR     81  52  36 SE12      29.79S
PHILLIPSBURG   CLEAR     82  61  47 CALM      29.80S
SMITH CENTER   CLEAR     81  61  50 SE13      29.82S
HAYS           MOCLDY    84  57  39 S16G22    29.82S
RUSSELL        MOCLDY    82  60  47 S18       29.81S
CONCORDIA      CLOUDY    79  64  60 S14       29.85S
SALINA         CLOUDY    81  65  58 SE14      29.84F
TOPEKA         MOCLDY    76  68  76 SE6       29.90S



USA.gov is the U.S. government's official web portal to all federal, state and local government web resources and services.